GSLV R/B, 65054

Orbit data source: Space-Track

GSLV R/B, 65054 is space debris in SSO originally from a launch on Wed, 30 Jul 2025 UTC launched from the Sirharikota (SRI). Debris objects in space refer to the collection of defunct objects orbiting the Earth. Examples of debris include non-operational satellites, rocket bodies, and fragments generated from explosions, collisions, or faulty payload assembly.

Loading next visibility...
Identifier
65054, 2025-163B
Orbit
SSO
Country
Flag of ININ / IND
Related business
Manufacturer
ISRO
Mission
Spacecraft
Bus & Motor
CUS15, Unknown motor
Mass
2,630 kg wet, 2,630 kg dry
Launch date (UTC)
2025-07-30 (4 months ago)
Launch vehicle
Unknown
Launch site
Sirharikota (SRI)
Object type
Payload
Rocket body
Debris
Shape & HBR
Cyl, 8.0 m
Radar Cross Section
22.211 m², Large (>1 m²)

Expand to show TLE details & history
Last TLE update: 11 hours ago

TLE from 11 hours ago
0 GSLV R/B
1 65054U 25163B   25342.53596258  .00000867  00000-0  24696-3 0  9997
2 65054  98.4325 169.0622 0010848 269.5707  90.4243 14.47663725 18956
Epoch: 2025-12-08T12:51Z
TLE epoch observation values (Epoch: 2025-12-08T12:51:47.166Z)
Latitude
-0°
Longitude
-101.41792°
Altitude
736.316 km
Speed
7.487 km/s
True Right ascension
11h 16m 14s
True Declination
0° 00' 00"
Sunlit
Object was in daylight at epoch
Visualization orbit readout
Latitude
Unknown
Longitude
Unknown
Altitude
Unknown
Speed
Unknown
Apparent Right ascension
Unknown
Apparent Declination
Unknown
Sunlit
N/A
Visualization observer readout
Local Sidereal Time
21:53:59
Azimuth
Unknown
Elevation
Unknown
Doppler factor
Unknown
Orbital elements
Apogee altitude
738.109 km
Perigee altitude
722.686 km
Semi-major axis
7,108.535 km
Eccentricity
0.00108
Inclination
98.4325°
RAAN
169.0622°
Arg. of periapsis
269.5707°
True anomaly
90.5486°
Mean anomaly
90.4243°
Eccentric anomaly
90.48645°
Mean motion
3.62137 °/min
Orbital period
99.41 mins
BSTAR
0.00024696
Loading maneuver chart data...
Computing Atmospheric mass density...
Loading historical data...
Loading historical data...
Loading historical data...
Loading historical data...
Loading historical data...
Loading historical data...
Loading historical data...
Other satellites on launch #163 in the year 2025 (2025-07-30 UTC)

Documentation

Showing up to 5 results
|